Location: Detroit
(42.3310°N, 83.0460°W)
Time: 07:26:35
(UTC-04:00)

X-37B - Visible Passes

Search period start: 24 September 2023 00:00
Search period end: 04 October 2023 00:00
Orbit: 277 x 277 km, 45.0° (Epoch: 01 November)

Date Brightness Start Highest point End Pass type
(mag) Time Alt. Az. Time Alt. Az. Time Alt. Az.
24 Sep 0.4 06:21:20 20° WNW 06:22:46 54° N 06:25:11 10° E visible
25 Sep -0.1 06:22:08 23° WNW 06:23:30 78° NNE 06:25:57 10° ESE visible
26 Sep -0.1 06:23:01 26° W 06:24:11 64° SSW 06:26:36 10° ESE visible
27 Sep 0.7 06:24:00 27° WSW 06:24:49 36° SSW 06:27:06 10° SE visible
28 Sep 1.5 06:25:08 20° SW 06:25:23 20° SSW 06:27:19 10° SSE visible
29 Sep 2.4 06:26:24 11° SSW 06:26:24 11° SSW 06:26:54 10° SSW visible
